Home   Weather   Middlesbrough   Past weeks
Flag for United Kingdom

Past Weather in Middlesbrough, England, United Kingdom — Yesterday and Last 2 Weeks

Now
41 °F

Partly cloudy.


Feels Like: 36 °F
Forecast: 47 / 38 °F
Wind: 8 mph from Northwest

Location: Leeming

Current Time: Mar 30, 2020 at 2:33:56 am

Latest Report: Mar 30, 2020 at 1:50 am


Visibility: N/A

Pressure: 30.72 "Hg

Humidity: 66%

Dew Point: 30 °F

Location of MiddlesbroughLocation

Past Weather in Middlesbrough — Graph

°F

Middlesbrough Temperature Yesterday

Maximum temperature yesterday: 45 °F (at 11:50 am)
Minimum temperature yesterday: 37 °F (at 3:50 am)
Average temperature yesterday: 40 °F

High & Low Weather Summary for the Past Weeks

 TemperatureHumidityPressure
High63 °F (Mar 25, 2:50 pm)100% (Mar 20, 1:50 am)30.86 "Hg (Mar 20, 1:50 am)
Low28 °F (Mar 23, 5:50 am)35% (Mar 26, 4:50 pm)29.47 "Hg (Mar 15, 3:50 am)
Average44 °F72%30.27 "Hg
* Reported Mar 14 11:50 pm — Mar 30 12:50 am, Middlesbrough. Weather by CustomWeather, © 2020

Note: Actual official high and low records may vary slightly from our data, if they occured in-between our weather recording intervals... More about our weather records

Middlesbrough Weather History for the Previous 24 Hours

Scroll right to see more
 ConditionsComfort  
Time TempWeatherWind HumidityBarometerVisibility
12:50 am
Mon, Mar 30
39 °FPassing clouds.5 mph70%30.74 "HgN/A
11:50 pm
Sun, Mar 29
37 °FPassing clouds.2 mph65%30.74 "HgN/A
10:50 pm37 °FOvercast.6 mph70%30.77 "HgN/A
9:50 pm37 °FOvercast.6 mph70%30.80 "HgN/A
8:50 pm37 °FPassing clouds.7 mph70%30.80 "HgN/A
7:50 pm37 °FPassing clouds.7 mph65%30.80 "HgN/A
6:50 pm39 °FPassing clouds.13 mph65%30.83 "HgN/A
5:50 pm41 °FPartly sunny.15 mph61%30.83 "HgN/A
4:50 pm41 °FPartly sunny.14 mph66%30.83 "HgN/A
3:50 pm41 °FLight rain. Partly sunny.15 mph70%30.83 "HgN/A
2:50 pm43 °FPartly sunny.18 mph57%30.83 "HgN/A
1:50 pm41 °FPartly sunny.14 mph76%30.86 "HgN/A
12:50 pm43 °FPartly sunny.17 mph57%30.86 "HgN/A
11:50 am45 °FPartly sunny.21 mph57%30.83 "HgN/A
10:50 am41 °FOvercast.21 mph61%30.83 "HgN/A
9:50 am41 °FOvercast.17 mph53%30.83 "HgN/A
8:50 am39 °FLight rain. Partly sunny.21 mph65%30.83 "HgN/A
7:50 am37 °FOvercast.12 mph70%30.80 "HgN/A
6:50 am37 °FPartly sunny.16 mph70%30.77 "HgN/A
5:50 am39 °FPassing clouds.17 mph56%30.77 "HgN/A
4:50 am37 °FPassing clouds.12 mph75%30.77 "HgN/A
3:50 am37 °FPassing clouds.16 mph75%30.77 "HgN/A
2:50 am39 °FPassing clouds.17 mph61%30.74 "HgN/A
Weather by CustomWeather, © 2020

See weather overview

Advertising